Location: Newark
(52.2090°N, 4.1550°W)
Time: 16:08:54
(UTC+00:00)

Explorer 7 - Pass Details

Date: 25 September 2019
Orbit: 485 x 680 km, 50.3° (Epoch: 14 October)

Event Time Altitude Azimuth Distance (km) Brightness Sun altitude
Rises 02:11:20 0° 281° (W) 2,932 - -32.4°
Reaches altitude 10° 02:13:43 10° 274° (W) 2,048 - -32.2°
Maximum altitude 02:18:09 41° 205° (SSW) 968 - -31.8°
Drops below altitude 10° 02:22:43 10° 136° (SE) 2,107 - -31.4°
Sets 02:25:12 0° 129° (SE) 3,026 - -31.1°
